Location: Maccacari
(45.1333°N, 11.1333°E)
Time: 08:36:23
(UTC+00:00)

Cosmos 2285 Rocket - Pass Details

Date: 18 September 2020
Orbit: 970 x 1000 km, 74.0° (Epoch: 29 October)

Event Time Altitude Azimuth Distance (km) Brightness Sun altitude
Rises 19:31:29 0° 193° (SSW) 3,649 6.9 -23.1°
Reaches altitude 10° 19:34:00 10° 191° (S) 2,708 6.1 -23.5°
Maximum altitude 19:40:14 74° 108° (ESE) 1,017 3.8 -24.4°
Drops below altitude 10° 19:46:34 10° 25° (NNE) 2,742 6.4 -25.4°
Sets 19:49:08 0° 23° (NNE) 3,698 7.1 -25.8°
